Total_Precipitation_Accumulation
0.46 0.45 0.44 0.41 0.37 0.35 0.32 0.29 0.25 0.22 0.20 0.18 0.16 0.15 0.13 0.12 0.11 0.11 0.11 0.11 0.12 0.12 0.12 0.11 0.11 0.11 0.10 0.09 0.09 0.09 0.10 0.14 0.16 0.09 0.07 0.07 0.08 0.10 0.10 0.12 0.11 0.12 0.11
0.29 0.25 0.23 0.21 0.19 0.19 0.18 0.16 0.14 0.13 0.12 0.11 0.11 0.11 0.11 0.11 0.11 0.10 0.10 0.10 0.10 0.10 0.09 0.09 0.08 0.08 0.10 0.09 0.09 0.09 0.09 0.12 0.16 0.14 0.10 0.09 0.11 0.13 0.15 0.16 0.10 0.08 0.11
0.20 0.18 0.17 0.16 0.15 0.14 0.13 0.13 0.12 0.12 0.12 0.12 0.12 0.11 0.10 0.10 0.09 0.09 0.09 0.08 0.08 0.07 0.07 0.07 0.07 0.07 0.08 0.09 0.11 0.11 0.12 0.13 0.19 0.22 0.18 0.15 0.13 0.11 0.16 0.14 0.14 0.21 0.14
0.15 0.14 0.14 0.14 0.13 0.13 0.12 0.12 0.11 0.11 0.11 0.10 0.09 0.09 0.09 0.08 0.06 0.06 0.06 0.06 0.06 0.06 0.05 0.05 0.05 0.06 0.07 0.10 0.12 0.14 0.17 0.20 0.23 0.25 0.20 0.16 0.14 0.13 0.20 0.21 0.19 0.21 0.19
0.16 0.17 0.17 0.16 0.16 0.15 0.14 0.13 0.12 0.11 0.09 0.07 0.05 0.04 0.03 0.02 0.02 0.02 0.02 0.02 0.03 0.03 0.03 0.03 0.03 0.03 0.06 0.10 0.12 0.16 0.22 0.26 0.25 0.26 0.23 0.18 0.15 0.18 0.23 0.25 0.26 0.21 0.16
0.27 0.25 0.24 0.21 0.19 0.16 0.14 0.12 0.09 0.06 0.04 0.02 0.02 0.01 0.01 0.01 0.00 0.00 0.00 0.01 0.02 0.03 0.04 0.04 0.03 0.03 0.04 0.07 0.10 0.15 0.22 0.27 0.28 0.29 0.26 0.24 0.22 0.27 0.33 0.36 0.38 0.34 0.24
0.30 0.26 0.22 0.18 0.14 0.11 0.08 0.06 0.05 0.04 0.04 0.03 0.02 0.02 0.02 0.01 0.00 0.00 0.00 0.01 0.03 0.06 0.07 0.07 0.05 0.04 0.08 0.10 0.09 0.09 0.12 0.14 0.23 0.33 0.37 0.35 0.36 0.41 0.51 0.49 0.45 0.44 0.38
0.21 0.17 0.13 0.10 0.07 0.05 0.04 0.04 0.04 0.05 0.05 0.05 0.04 0.03 0.05 0.02 0.00 0.00 0.00 0.01 0.04 0.06 0.07 0.08 0.10 0.12 0.10 0.08 0.07 0.08 0.12 0.19 0.25 0.33 0.43 0.45 0.45 0.48 0.55 0.57 0.53 0.48 0.39
0.14 0.11 0.07 0.05 0.04 0.04 0.04 0.04 0.05 0.06 0.06 0.05 0.04 0.05 0.07 0.06 0.01 0.00 0.00 0.02 0.04 0.05 0.06 0.07 0.07 0.11 0.09 0.09 0.08 0.12 0.17 0.25 0.26 0.36 0.47 0.51 0.53 0.55 0.56 0.55 0.58 0.58 0.49
0.10 0.07 0.05 0.04 0.04 0.04 0.05 0.05 0.05 0.06 0.07 0.05 0.05 0.07 0.08 0.09 0.02 0.00 0.01 0.02 0.04 0.05 0.07 0.10 0.09 0.08 0.10 0.10 0.08 0.14 0.24 0.28 0.38 0.57 0.69 0.71 0.67 0.64 0.60 0.59 0.61 0.62 0.60
0.08 0.07 0.06 0.04 0.04 0.04 0.06 0.07 0.06 0.06 0.07 0.07 0.08 0.10 0.10 0.06 0.02 0.01 0.01 0.02 0.04 0.05 0.10 0.16 0.17 0.12 0.10 0.09 0.09 0.16 0.26 0.29 0.46 0.76 0.81 0.71 0.61 0.56 0.53 0.52 0.54 0.59 0.64
0.09 0.09 0.07 0.05 0.03 0.03 0.07 0.09 0.07 0.07 0.09 0.09 0.10 0.12 0.11 0.08 0.03 0.01 0.01 0.02 0.03 0.06 0.15 0.18 0.17 0.14 0.12 0.12 0.14 0.22 0.28 0.41 0.62 0.85 0.83 0.70 0.56 0.48 0.44 0.42 0.46 0.53 0.57
0.09 0.10 0.08 0.05 0.04 0.03 0.05 0.07 0.07 0.08 0.07 0.06 0.07 0.10 0.10 0.10 0.07 0.01 0.01 0.02 0.04 0.08 0.16 0.20 0.20 0.17 0.19 0.30 0.32 0.36 0.46 0.62 0.74 0.79 0.73 0.61 0.51 0.46 0.41 0.39 0.39 0.46 0.51
0.13 0.11 0.08 0.07 0.06 0.04 0.03 0.03 0.03 0.04 0.04 0.05 0.08 0.09 0.10 0.10 0.07 0.04 0.03 0.05 0.06 0.10 0.16 0.27 0.36 0.38 0.42 0.52 0.59 0.63 0.66 0.68 0.67 0.65 0.59 0.52 0.47 0.46 0.42 0.38 0.37 0.40 0.45
0.13 0.08 0.07 0.07 0.06 0.06 0.05 0.03 0.02 0.02 0.01 0.02 0.04 0.05 0.07 0.08 0.05 0.06 0.07 0.07 0.08 0.12 0.16 0.27 0.43 0.52 0.59 0.63 0.65 0.66 0.64 0.59 0.57 0.54 0.50 0.46 0.45 0.44 0.41 0.36 0.35 0.36 0.41
0.08 0.06 0.05 0.05 0.05 0.04 0.06 0.07 0.02 0.01 0.01 0.01 0.02 0.03 0.03 0.05 0.05 0.05 0.07 0.09 0.11 0.15 0.19 0.33 0.45 0.51 0.57 0.59 0.59 0.57 0.52 0.49 0.45 0.44 0.42 0.37 0.35 0.36 0.38 0.35 0.33 0.35 0.40
0.04 0.03 0.02 0.02 0.03 0.03 0.05 0.11 0.14 0.08 0.02 0.01 0.01 0.02 0.03 0.04 0.04 0.04 0.05 0.07 0.10 0.17 0.24 0.38 0.47 0.51 0.56 0.58 0.53 0.49 0.47 0.43 0.36 0.32 0.33 0.31 0.27 0.28 0.31 0.34 0.33 0.34 0.35
0.02 0.01 0.01 0.01 0.01 0.02 0.04 0.06 0.11 0.17 0.15 0.11 0.05 0.02 0.03 0.04 0.05 0.05 0.06 0.09 0.15 0.21 0.32 0.41 0.47 0.49 0.52 0.53 0.48 0.44 0.42 0.35 0.30 0.26 0.27 0.27 0.26 0.25 0.27 0.29 0.29 0.26 0.29
0.01 0.02 0.02 0.01 0.01 0.01 0.02 0.03 0.05 0.09 0.13 0.14 0.12 0.07 0.06 0.08 0.10 0.11 0.12 0.15 0.19 0.24 0.29 0.34 0.40 0.43 0.45 0.44 0.41 0.36 0.33 0.30 0.26 0.24 0.24 0.25 0.26 0.25 0.23 0.21 0.20 0.15 0.21
0.01 0.01 0.01 0.01 0.01 0.01 0.01 0.02 0.04 0.07 0.09 0.10 0.09 0.07 0.09 0.16 0.20 0.20 0.17 0.15 0.15 0.18 0.23 0.28 0.32 0.33 0.33 0.33 0.30 0.26 0.25 0.24 0.22 0.22 0.22 0.23 0.23 0.21 0.17 0.15 0.15 0.15 0.17
0.01 0.01 0.01 0.01 0.01 0.01 0.01 0.02 0.03 0.06 0.08 0.09 0.07 0.05 0.11 0.17 0.23 0.23 0.21 0.18 0.17 0.18 0.20 0.22 0.24 0.24 0.22 0.20 0.20 0.19 0.18 0.18 0.19 0.22 0.23 0.21 0.18 0.15 0.11 0.09 0.08 0.08 0.09
0.01 0.01 0.01 0.01 0.01 0.00 0.00 0.00 0.01 0.03 0.05 0.07 0.07 0.06 0.11 0.15 0.20 0.20 0.20 0.19 0.18 0.19 0.20 0.20 0.20 0.19 0.18 0.17 0.17 0.16 0.14 0.15 0.16 0.20 0.21 0.19 0.15 0.10 0.07 0.06 0.05 0.04 0.04
0.00 0.00 0.00 0.00 0.00 0.00 0.00 0.00 0.01 0.01 0.03 0.04 0.05 0.06 0.08 0.12 0.14 0.18 0.20 0.18 0.15 0.15 0.14 0.15 0.16 0.16 0.15 0.14 0.14 0.12 0.10 0.11 0.13 0.16 0.22 0.20 0.14 0.08 0.06 0.05 0.04 0.04 0.03
0.00 0.00 0.00 0.00 0.00 0.00 0.00 0.00 0.00 0.00 0.01 0.02 0.03 0.05 0.07 0.08 0.10 0.15 0.18 0.17 0.16 0.15 0.14 0.13 0.14 0.14 0.14 0.13 0.11 0.08 0.05 0.06 0.08 0.11 0.17 0.16 0.10 0.06 0.06 0.06 0.05 0.04 0.03
0.00 0.00 0.00 0.00 0.00 0.00 0.00 0.00 0.00 0.00 0.01 0.01 0.02 0.03 0.05 0.05 0.05 0.08 0.12 0.14 0.15 0.17 0.16 0.12 0.10 0.10 0.09 0.07 0.05 0.04 0.05 0.05 0.05 0.06 0.11 0.12 0.07 0.05 0.05 0.04 0.04 0.04 0.04
0.00 0.00 0.00 0.00 0.00 0.00 0.00 0.00 0.00 0.00 0.00 0.00 0.00 0.01 0.01 0.02 0.02 0.03 0.05 0.07 0.10 0.13 0.13 0.12 0.10 0.07 0.05 0.02 0.02 0.03 0.04 0.03 0.02 0.03 0.07 0.11 0.08 0.05 0.06 0.05 0.03 0.04 0.05